Content
SEND FEEDBACK

Daily
Averages
Monthly
Summary
United States of America

NEW YORK - CENTRAL PARK, NEW YORK


Home > North America > United States > New York
Elevation: 14 feet     Latitude: 40 47N     Longitude: 073 58W

WEATHER
 
SELECT A DAY
Number of Records: 147,926;   Date Range: 11/1/95 - 7/7/14
 
SHARE

PRINT THIS DATA

[ ← Previous Day ]
WEATHER ALMANAC - FEBRUARY 12, 2013
[ Next Day → ]
[ °C ]   °F
Weather ElementAverageHighLow
Temperature40.8 °F43 °F (1:51 am)37 °F (10:51 pm)
Dewpoint24.3 °F30.9 °F (1:51 am)21.9 °F (8:51 pm)
Humidity51.9 %62 % (1:51 am)45 % (1:51 pm)
Barometer29.86 in29.96 in (6:51 pm)29.73 in (1:51 am)
Wind Speed8.9 mph16.1 mph (1:51 pm)
Wind Gust25.3 mph (2:51 am)
Weather ElementAverage
Visibility10 mi
Wind DirectionSW (220.9 °)

Weather ElementTotal
Precipitation---
Heating Degree Days25 (Base 65)
Averaged from 23 records on February 12, 2013
WEATHER CONDITIONS BREAKOUT
WIND DIRECTION BREAKOUT
WEATHER BY HOUR - FEBRUARY 12, 2013
[ °C ]   °F
Local TimeTemperatureDewpointHumidityBarometerVisibilityWind DirectionWind SpeedGust SpeedPrecipitationEventsConditions
1:51 AM43.0 °F30.9 °F62 %29.73 in10.0 miNorthScattered Clouds
2:51 AM41.0 °F26.1 °F55 %29.75 in10.0 miWNW (290°)10.4 mph25.3 mphPartly Cloudy
3:51 AM39.9 °F26.1 °F58 %29.77 in10.0 miWNW (290°)8.1 mph18.4 mphMostly Cloudy
4:51 AM39.9 °F25.0 °F55 %29.77 in10.0 miVariable5.8 mphClear
5:51 AM39.9 °F25.0 °F55 %29.79 in10.0 miWest (280°)12.7 mph20.7 mphOvercast
6:51 AM39.9 °F25.0 °F55 %29.81 in10.0 miNorthOvercast
7:51 AM39.9 °F24.1 °F53 %29.83 in10.0 miWest (270°)10.4 mph21.9 mphScattered Clouds
8:51 AM41.0 °F24.1 °F51 %29.85 in10.0 miWest (270°)8.1 mph20.7 mphClear
9:51 AM42.1 °F24.1 °F49 %29.86 in10.0 miWNW (290°)12.7 mph21.9 mphOvercast
10:51 AM42.1 °F24.1 °F49 %29.87 in10.0 miWest (280°)11.5 mph19.6 mphOvercast
11:51 AM43.0 °F24.1 °F47 %29.88 in10.0 miWest (280°)11.5 mph21.9 mphOvercast
12:51 PM43.0 °F24.1 °F47 %29.88 in10.0 miWest (280°)10.4 mph24.2 mphMostly Cloudy
1:51 PM43.0 °F23.0 °F45 %29.88 in10.0 miWest (280°)16.1 mph24.2 mphPartly Cloudy
2:51 PM43.0 °F23.0 °F45 %29.88 in10.0 miWest (280°)6.9 mph24.2 mphPartly Cloudy
3:51 PM43.0 °F24.1 °F47 %29.86 in10.0 miWNW (290°)10.4 mph18.4 mphMostly Cloudy
4:51 PM42.1 °F23.0 °F47 %29.84 in10.0 miWNW (290°)9.2 mphClear
5:51 PM41.0 °F24.1 °F51 %29.93 in10.0 miVariable6.9 mphOvercast
6:51 PM39.9 °F24.1 °F53 %29.96 in10.0 miVariable6.9 mphOvercast
7:51 PM39.9 °F23.0 °F51 %29.96 in10.0 miWest (280°)8.1 mph17.3 mphOvercast
8:51 PM39.0 °F21.9 °F50 %29.93 in10.0 miWest (280°)5.8 mphClear
9:51 PM37.9 °F23.0 °F55 %29.91 in10.0 miWest (280°)3.5 mphClear
10:51 PM37.0 °F23.0 °F57 %29.91 in10.0 miWNW (290°)5.8 mphClear
11:51 PM37.0 °F23.0 °F57 %29.93 in10.0 miWest (280°)5.8 mphClear
Hourly data recorded from KNYC, located miles away from New York - Central Park, New York







STORIES FROM OUR PARTNERS